KE0TRL Weather Reports


time (UTC)temp
C
wind
direction
speed
KPH
gust
KPH
rain 1hr
cm
rain 24hr
cm
rain mn
cm
humidity
%
barometer
mb
20260505034602 12 158 1.6 11.3 0.00 0.00 0.00 45 1007.5
20260505033502 12 180 6.4 9.7 0.00 0.00 0.00 45 1007.5
20260505032402 12 180 4.8 11.3 0.00 0.00 0.00 45 1007.5
20260505031302 12 135 6.4 9.7 0.00 0.00 0.00 45 1007.5
20260505025003 12 248 16.1 16.1 0.00 0.00 0.00 45 1006.4
20260505023902 12 135 12.9 19.3 0.00 0.00 0.00 45 1006.4
20260505022702 13 158 14.5 14.5 0.00 0.00 0.00 44 1006.4
20260505020502 13 135 6.4 9.7 0.00 0.00 0.00 45 1006.1
20260505015402 13 180 4.8 14.5 0.00 0.00 0.00 45 1006.1
20260505014302 13 248 6.4 24.1 0.00 0.00 0.00 44 1005.8
20260505013203 13 158 24.1 24.1 0.00 0.00 0.00 44 1005.4
20260505012103 14 225 12.9 14.5 0.00 0.00 0.00 41 1005.1
20260505011003 15 293 8.0 8.0 0.00 0.00 0.00 40 1005.1
20260505004702 16 180 8.0 11.3 0.00 0.00 0.00 37 1004.7
20260505003602 17 180 4.8 20.9 0.00 0.00 0.00 37 1004.7
20260505002503 17 180 9.7 11.3 0.00 0.00 0.00 35 1004.7
20260505000204 18 135 14.5 14.5 0.00 0.00 0.00 35 1004.4
20260504235102 20 270 8.0 11.3 0.00 0.00 0.00 35 1004.1
20260504234002 20 203 14.5 14.5 0.00 0.00 0.00 34 1003.7
20260504231802 22 180 14.5 14.5 0.00 0.00 0.00 30 1003.4
20260504230701 22 135 14.5 14.5 0.00 0.00 0.00 30 1003.4
20260504225603 23 113 11.3 11.3 0.00 0.00 0.00 30 1003.0
20260504224402 23 203 14.5 14.5 0.00 0.00 0.00 30 1003.0
20260504223302 24 180 8.0 16.1 0.00 0.00 0.00 29 1002.7
20260504221102 25 180 9.7 14.5 0.00 0.00 0.00 29 1002.4
20260504220003 25 180 6.4 8.0 0.00 0.00 0.00 27 1001.7
20260504213802 26 203 4.8 14.5 0.00 0.00 0.00 27 1001.7
20260504212702 26 113 4.8 19.3 0.00 0.00 0.00 27 1001.7
20260504211602 26 135 6.4 11.3 0.00 0.00 0.00 30 1001.4
20260504210502 26 158 8.0 17.7 0.00 0.00 0.00 30 1001.4
20260504205402 26 180 8.0 9.7 0.00 0.00 0.00 31 1001.4
20260504204202 26 158 6.4 12.9 0.00 0.00 0.00 32 1001.4
20260504203102 26 180 6.4 11.3 0.00 0.00 0.00 34 1001.4
20260504202003 26 270 4.8 12.9 0.00 0.00 0.00 35 1001.4
20260504200902 26 203 11.3 11.3 0.00 0.00 0.00 35 1001.4
20260504193602 26 180 4.8 17.7 0.00 0.00 0.00 35 1001.0
20260504192502 26 203 8.0 14.5 0.00 0.00 0.00 35 1001.0
20260504191302 26 180 11.3 11.3 0.00 0.00 0.00 35 1001.0
20260504190202 26 180 14.5 14.5 0.00 0.00 0.00 35 1001.0
20260504185003 26 68 9.7 11.3 0.00 0.00 0.00 32 1000.7
20260504183902 26 113 4.8 9.7 0.00 0.00 0.00 34 1000.3
20260504182702 26 135 6.4 12.9 0.00 0.00 0.00 32 1000.7
20260504181503 26 180 11.3 11.3 0.00 0.00 0.00 32 1000.7
20260504180502 27 203 4.8 9.7 0.00 0.00 0.00 31 1000.7
20260504175403 26 315 6.4 9.7 0.00 0.00 0.00 31 1001.0
20260504174203 26 338 3.2 8.0 0.00 0.00 0.00 34 1001.0
20260504173202 26 248 6.4 11.3 0.00 0.00 0.00 34 1000.7
20260504160402 22 113 6.4 9.7 0.00 0.00 0.00 43 1001.0
20260504150802 20 23 6.4 9.7 0.00 0.00 0.00 45 1001.0
20260504141103 16 338 3.2 4.8 0.00 0.00 0.00 55 1001.4
20260504130502 12 68 3.2 3.2 0.00 0.00 0.00 65 1001.7
20260504080802 10 158 0.0 0.0 0.00 0.00 0.00 74 1002.7
20260504050202 13 158 0.0 0.0 0.00 0.00 0.00 55 1005.1
20260504045102 14 158 0.0 0.0 0.00 0.00 0.00 50 1005.4
20260504044002 14 158 0.0 0.0 0.00 0.00 0.00 53 1005.4
20260504041701 14 158 0.0 0.0 0.00 0.00 0.00 51 1005.8
20260504040602 15 158 0.0 0.0 0.00 0.00 0.00 54 1005.4